Pittsburgh, PA

2:57 PM EST on January 20, 2017 (GMT -0500)
Allegheny County

Weather History for KAGC - September, 2014

Change the Weather History Date:

Monday, September 1, 2014

  Actual Average Record
Temperature  
Mean Temperature 75 °F -  
Max Temperature 82 °F 81 °F 91 °F (1993)
Min Temperature 69 °F 57 °F 50 °F (1988)
Cooling Degree Days 10    
Growing Degree Days 25 (Base 50)    
Moisture  
Dew Point 68 °F    
Average Humidity 85    
Maximum Humidity 94    
Minimum Humidity 62    
Precipitation  
Precipitation 0.08 in - - ()
Sea Level Pressure  
Sea Level Pressure 30.01 in    
Wind  
Wind Speed 6 mph (SSW)    
Max Wind Speed 15 mph    
Max Gust Speed 20 mph    
Visibility 7 miles    
Events Rain    
Averages and records for this station are not official NWS values.
T = Trace of Precipitation, MM = Missing Value Source: NWS Daily Summary

Daily Weather History Graph

Daily Weather History Graph

Search for Another Location

Airport or City:

Trip Planner

Search our weather history database for the weather conditions in past years. The results will help you decide how hot, cold, wet, or windy it might be!

Date:

Astronomy

Sep. 01, 2014 Rise Set
Actual Time 6:47 AM EDT 7:51 PM EDT
Civil Twilight 6:19 AM EDT 8:19 PM EDT
Nautical Twilight 5:45 AM EDT 8:52 PM EDT
Astronomical Twilight 5:11 AM EDT 9:27 PM EDT
Moon 1:32 PM EDT (9/1) 11:50 PM EDT (9/1)
Length of Visible Light 14h 00m
Length of Day
13h 04m
Waxing Crescent, 42% of the Moon is Illuminated
Sep 1
Waxing Crescent
Sep 2
First Quarter
Sep 8
Full
Sep 15
Last Quarter
Sep 24
New

Hourly Weather History & Observations

Time (EDT) Temp. Heat Index Dew Point Humidity Pressure Visibility Wind Dir Wind Speed Gust Speed Precip Events Conditions
12:23 AM 70.0 °F - 68.0 °F 93% 30.04 in 5.0 mi SSW 6.9 mph - N/A   Overcast
12:36 AM 70.0 °F - 68.0 °F 93% 30.04 in 6.0 mi South 6.9 mph - N/A   Overcast
12:53 AM 70.0 °F - 68.0 °F 93% 30.03 in 7.0 mi South 6.9 mph - N/A   Overcast
1:53 AM 70.0 °F - 66.9 °F 90% 30.02 in 8.0 mi South 4.6 mph - N/A   Scattered Clouds
2:05 AM 70.0 °F - 66.9 °F 90% 30.03 in 7.0 mi South 4.6 mph - N/A   Mostly Cloudy
2:24 AM 70.0 °F - 66.9 °F 90% 30.03 in 7.0 mi South 4.6 mph - N/A   Overcast
2:53 AM 70.0 °F - 66.9 °F 90% 30.02 in 7.0 mi SSW 5.8 mph - N/A   Overcast
3:53 AM 70.0 °F - 66.9 °F 90% 30.02 in 8.0 mi SSW 4.6 mph - N/A   Overcast
4:53 AM 70.0 °F - 66.9 °F 90% 30.02 in 6.0 mi Calm Calm - N/A   Overcast
5:01 AM 70.0 °F - 68.0 °F 93% 30.03 in 6.0 mi Calm Calm - N/A   Overcast
5:46 AM 70.0 °F - 68.0 °F 93% 30.03 in 5.0 mi SSE 3.5 mph - N/A   Overcast
5:53 AM 70.0 °F - 68.0 °F 93% 30.02 in 5.0 mi SSE 3.5 mph - N/A   Overcast
6:00 AM 70.0 °F - 68.0 °F 93% 30.03 in 5.0 mi SSE 3.5 mph - N/A   Overcast
6:18 AM 69.8 °F - 68.0 °F 94% 30.03 in 2.5 mi SSE 3.5 mph - N/A Rain Light Rain
6:23 AM 70.0 °F - 68.0 °F 93% 30.03 in 1.5 mi SSE 3.5 mph - 0.00 in Rain Light Rain
6:53 AM 70.0 °F - 68.0 °F 93% 30.02 in 1.5 mi South 4.6 mph - 0.02 in Rain Light Rain
7:15 AM 70.0 °F - 68.0 °F 93% 30.03 in 1.5 mi South 4.6 mph - 0.00 in   Overcast
7:53 AM 70.0 °F - 68.0 °F 93% 30.03 in 1.5 mi SSE 4.6 mph - 0.00 in   Overcast
8:00 AM 70.0 °F - 68.0 °F 93% 30.03 in 2.0 mi SSE 4.6 mph - N/A   Overcast
8:48 AM 71.6 °F - 69.8 °F 94% 30.03 in 2.0 mi South 5.8 mph - N/A   Overcast
8:53 AM 71.1 °F - 68.0 °F 90% 30.02 in 2.0 mi South 5.8 mph - N/A   Overcast
9:00 AM 71.1 °F - 69.1 °F 93% 30.03 in 4.0 mi South 5.8 mph - N/A   Overcast
9:12 AM 71.1 °F - 68.0 °F 90% 30.03 in 2.0 mi South 5.8 mph - N/A   Overcast
9:53 AM 72.0 °F - 69.1 °F 91% 30.02 in 2.0 mi WSW 8.1 mph - 0.03 in Rain Light Rain
10:07 AM 72.0 °F - 69.1 °F 91% 30.02 in 4.0 mi WSW 5.8 mph - 0.00 in   Overcast
10:24 AM 73.9 °F - 70.0 °F 87% 30.03 in 10.0 mi SW 6.9 mph - 0.00 in   Overcast
10:44 AM 73.9 °F - 69.1 °F 85% 30.03 in 6.0 mi SW 5.8 mph - 0.00 in   Overcast
10:53 AM 75.2 °F - 69.8 °F 83% 30.03 in 10.0 mi WSW 8.1 mph - N/A   Overcast
11:02 AM 75.0 °F - 69.1 °F 82% 30.03 in 10.0 mi SW 9.2 mph - N/A   Overcast
11:53 AM 78.1 °F - 69.1 °F 74% 30.02 in 10.0 mi SW 9.2 mph - N/A   Overcast
12:15 PM 79.0 °F - 68.0 °F 69% 30.03 in 10.0 mi WSW 11.5 mph - N/A   Mostly Cloudy
12:53 PM 78.1 °F - 68.0 °F 71% 30.01 in 10.0 mi SW 10.4 mph - N/A   Mostly Cloudy
1:32 PM 79.0 °F - 69.1 °F 72% 30.01 in 10.0 mi WSW 15.0 mph - N/A   Mostly Cloudy
1:40 PM 80.1 °F 82.9 °F 69.1 °F 69% 30.01 in 10.0 mi SW 12.7 mph - N/A   Mostly Cloudy
1:53 PM 80.1 °F 82.7 °F 68.0 °F 67% 29.99 in 10.0 mi SSW 13.8 mph - N/A   Partly Cloudy
2:53 PM 81.0 °F 83.3 °F 66.9 °F 62% 29.97 in 9.0 mi SW 15.0 mph 19.6 mph N/A   Mostly Cloudy
3:53 PM 81.0 °F 83.3 °F 66.9 °F 62% 29.95 in 7.0 mi SW 8.1 mph - N/A   Overcast
4:53 PM 78.1 °F - 69.1 °F 74% 29.95 in 8.0 mi South 6.9 mph - 0.03 in   Mostly Cloudy
5:53 PM 80.1 °F 82.7 °F 68.0 °F 67% 29.95 in 10.0 mi SSW 10.4 mph - N/A   Clear
6:53 PM 78.1 °F - 68.0 °F 71% 29.94 in 10.0 mi South 6.9 mph - N/A   Partly Cloudy
7:53 PM 75.0 °F - 68.0 °F 79% 29.94 in 10.0 mi South 6.9 mph - N/A   Partly Cloudy
8:53 PM 73.9 °F - 66.9 °F 79% 29.95 in 10.0 mi South 6.9 mph - N/A   Scattered Clouds
9:53 PM 73.0 °F - 68.0 °F 84% 29.96 in 10.0 mi South 6.9 mph - N/A   Clear
10:53 PM 73.0 °F - 68.0 °F 84% 29.96 in 10.0 mi South 8.1 mph - N/A   Clear
11:53 PM 73.0 °F - 68.0 °F 84% 29.97 in 10.0 mi SSW 9.2 mph - N/A   Scattered Clouds